Flag for Germany Weather past 2 weeks in Homberg (Efze), Hesse, Germany

Now
51 °F

Overcast.


Feels Like: 51 °F
Forecast: 41 / 60 °F
Wind: 2 mph from Southwest

Location: Fritzlar

Current Time: Sep 22, 2014 at 8:39:03 AM

Latest Report: Sep 22, 2014 at 8:00 AM


Visibility: 11 mi

Pressure: 30.04 "Hg

Humidity: 89%

Dew point: 48 °F

Location of Homberg (Efze)Location

Historic Weather in Homberg (Efze) — Graph

°F

Homberg (Efze) temperature yesterday

Maximum temperature yesterday: 62 °F (at 12:00 PM)
Minimum temperature yesterday: 52 °F (at 11:00 PM)
Average temperature yesterday: 57 °F

Past Weeks' High & Low Weather Summary

 TemperatureHumidityPressure
High74 °F (Sep 17, 3:00 PM)99% (Sep 7, 7:00 AM)30.22 "Hg (Sep 7, 7:00 AM)
Low47 °F (Sep 9, 8:00 AM)55% (Sep 17, 3:00 PM)29.89 "Hg (Sep 17, 6:00 PM)
Average60 °F85%30.03 "Hg
* Reported Sep 7 7:00 AM — Sep 22 7:00 AM, Homberg (Efze), Weather by CustomWeather, © 2014

Note: Actual official high and low records may vary slightly from our data, if they occured in-between our weather recording intervals... More about our weather records

Advertising

Homberg (Efze) weather history for previous 24 hours

 ConditionsComfort  
Time TempWeatherWind HumidityBarometerVisibility
7:00 AM
Sep 22
52 °FSprinkles. Overcast.2 mph82%30.03 "Hg5 mi
6:00 AM53 °FOvercast.5 mph78%30.03 "Hg9 mi
5:00 AM53 °FOvercast.2 mph84%30.04 "Hg7 mi
4:00 AM53 °FLow clouds.1 mph85%30.05 "Hg7 mi
3:00 AM53 °FOvercast.2 mph88%30.05 "Hg7 mi
2:00 AM53 °FOvercast.2 mph86%30.05 "Hg7 mi
1:00 AM52 °FOvercast.2 mph85%30.06 "Hg6 mi
12:00 AM52 °FPassing clouds.2 mph86%30.05 "Hg7 mi
11:00 PM
Sep 21
52 °FPassing clouds.3 mph86%30.05 "Hg11 mi
10:00 PM53 °FOvercast.2 mph83%30.04 "Hg16 mi
9:00 PM55 °FPassing clouds.5 mph81%30.02 "Hg17 mi
8:00 PM56 °FPassing clouds.3 mph78%30.00 "Hg19 mi
7:00 PM59 °FPartly sunny.3 mph77%29.98 "Hg19 mi
6:00 PM60 °FOvercast.3 mph76%29.98 "Hg12 mi
5:00 PM60 °FOvercast.3 mph81%29.97 "Hg12 mi
4:00 PM60 °FOvercast.3 mph85%29.96 "Hg12 mi
3:00 PM59 °FOvercast.6 mph88%29.97 "Hg7 mi
2:00 PM60 °FLight rain. Overcast.5 mph87%29.96 "Hg6 mi
1:00 PM59 °FSprinkles. Overcast.3 mph94%29.96 "Hg3 mi
12:00 PM62 °FLight rain. Overcast.2 mph90%29.94 "Hg4 mi
11:00 AM60 °FFog.N/A94%29.95 "Hg2 mi
10:00 AM58 °FFog.1 mph98%29.95 "Hg2 mi
9:00 AM56 °FFog.1 mph98%29.95 "Hg2 mi
8:00 AM56 °FRain. Low clouds.1 mph98%29.95 "Hg2 mi
Weather by CustomWeather, © 2014

See weather overviewHow to use our weather pages